Year,Month,Day,Hour,Minute,Value (Times are PST for temperature in C)
2013,07,24,00,00,19.40
2013,07,24,00,01,19.30
2013,07,24,00,02,19.30
2013,07,24,00,03,19.30
2013,07,24,00,04,19.30
2013,07,24,00,05,19.30
2013,07,24,00,06,19.30
2013,07,24,00,07,19.30
2013,07,24,00,08,19.30
2013,07,24,00,09,19.30
2013,07,24,00,10,19.30
2013,07,24,00,11,19.20
2013,07,24,00,12,19.20
2013,07,24,00,13,19.20
2013,07,24,00,14,19.20
2013,07,24,00,15,19.20
2013,07,24,00,16,19.20
2013,07,24,00,17,19.10
2013,07,24,00,18,19.10
2013,07,24,00,19,19.10
2013,07,24,00,20,19.10
2013,07,24,00,21,19.10
2013,07,24,00,22,19.10
2013,07,24,00,23,19.00
2013,07,24,00,24,19.00
2013,07,24,00,25,18.90
2013,07,24,00,26,18.90
2013,07,24,00,27,18.90
2013,07,24,00,28,18.90
2013,07,24,00,29,18.90
2013,07,24,00,30,18.80
2013,07,24,00,31,18.80
2013,07,24,00,32,18.80
2013,07,24,00,33,18.80
2013,07,24,00,34,18.70
2013,07,24,00,35,18.70
2013,07,24,00,36,18.70
2013,07,24,00,37,18.70
2013,07,24,00,38,18.70
2013,07,24,00,39,18.70
2013,07,24,00,40,18.70
2013,07,24,00,41,18.70
2013,07,24,00,42,18.70
2013,07,24,00,43,18.70
2013,07,24,00,44,18.70
2013,07,24,00,45,18.70
2013,07,24,00,46,18.60
2013,07,24,00,47,18.60
2013,07,24,00,48,18.60
2013,07,24,00,49,18.60
2013,07,24,00,50,18.60
2013,07,24,00,51,18.60
2013,07,24,00,52,18.50
2013,07,24,00,53,18.50
2013,07,24,00,54,18.50
2013,07,24,00,55,18.50
2013,07,24,00,56,18.40
2013,07,24,00,57,18.40
2013,07,24,00,58,18.40
2013,07,24,00,59,18.40
2013,07,24,01,00,18.40
2013,07,24,01,01,18.40
2013,07,24,01,02,18.40
2013,07,24,01,03,18.40
2013,07,24,01,04,18.40
2013,07,24,01,05,18.40
2013,07,24,01,06,18.40
2013,07,24,01,07,18.40
2013,07,24,01,08,18.30
2013,07,24,01,09,18.30
2013,07,24,01,10,18.30
2013,07,24,01,11,18.30
2013,07,24,01,12,18.30
2013,07,24,01,13,18.30
2013,07,24,01,14,18.30
2013,07,24,01,15,18.20
2013,07,24,01,16,18.20
2013,07,24,01,17,18.20
2013,07,24,01,18,18.20
2013,07,24,01,19,18.20
2013,07,24,01,20,18.20
2013,07,24,01,21,18.20
2013,07,24,01,22,18.20
2013,07,24,01,23,18.20
2013,07,24,01,24,18.10
2013,07,24,01,25,18.10
2013,07,24,01,26,18.10
2013,07,24,01,27,18.10
2013,07,24,01,28,18.10
2013,07,24,01,29,18.00
2013,07,24,01,30,18.00
2013,07,24,01,31,18.00
2013,07,24,01,32,18.00
2013,07,24,01,33,17.90
2013,07,24,01,34,17.90
2013,07,24,01,35,17.90
2013,07,24,01,36,17.90
2013,07,24,01,37,17.90
2013,07,24,01,38,17.90
2013,07,24,01,39,17.90
2013,07,24,01,40,17.80
2013,07,24,01,41,17.80
2013,07,24,01,42,17.80
2013,07,24,01,43,17.80
2013,07,24,01,44,17.80
2013,07,24,01,45,17.80
2013,07,24,01,46,17.80
2013,07,24,01,47,17.80
2013,07,24,01,48,17.70
2013,07,24,01,49,17.70
2013,07,24,01,50,17.70
2013,07,24,01,51,17.70
2013,07,24,01,52,17.70
2013,07,24,01,53,17.70
2013,07,24,01,54,17.70
2013,07,24,01,55,17.70
2013,07,24,01,56,17.70
2013,07,24,01,57,17.60
2013,07,24,01,58,17.60
2013,07,24,01,59,17.60
2013,07,24,02,00,17.60
2013,07,24,02,01,17.60
2013,07,24,02,02,17.60
2013,07,24,02,03,17.60
2013,07,24,02,04,17.60
2013,07,24,02,05,17.50
2013,07,24,02,06,17.50
2013,07,24,02,07,17.50
2013,07,24,02,08,17.50
2013,07,24,02,09,17.50
2013,07,24,02,10,17.50
2013,07,24,02,11,17.40
2013,07,24,02,12,17.40
2013,07,24,02,13,17.40
2013,07,24,02,14,17.40
2013,07,24,02,15,17.40
2013,07,24,02,16,17.40
2013,07,24,02,17,17.40
2013,07,24,02,18,17.40
2013,07,24,02,19,17.40
2013,07,24,02,20,17.40
2013,07,24,02,21,17.40
2013,07,24,02,22,17.30
2013,07,24,02,23,17.30
2013,07,24,02,24,17.30
2013,07,24,02,25,17.30
2013,07,24,02,26,17.30
2013,07,24,02,27,17.30
2013,07,24,02,28,17.30
2013,07,24,02,29,17.30
2013,07,24,02,30,17.30
2013,07,24,02,31,17.30
2013,07,24,02,32,17.30
2013,07,24,02,33,17.30
2013,07,24,02,34,17.20
2013,07,24,02,35,17.20
2013,07,24,02,36,17.20
2013,07,24,02,37,17.20
2013,07,24,02,38,17.20
2013,07,24,02,39,17.20
2013,07,24,02,40,17.20
2013,07,24,02,41,17.20
2013,07,24,02,42,17.20
2013,07,24,02,43,17.20
2013,07,24,02,44,17.20
2013,07,24,02,45,17.20
2013,07,24,02,46,17.20
2013,07,24,02,47,17.20
2013,07,24,02,48,17.20
2013,07,24,02,49,17.20
2013,07,24,02,50,17.20
2013,07,24,02,51,17.20
2013,07,24,02,52,17.20
2013,07,24,02,53,17.20
2013,07,24,02,54,17.20
2013,07,24,02,55,17.10
2013,07,24,02,56,17.10
2013,07,24,02,57,17.10
2013,07,24,02,58,17.10
2013,07,24,02,59,17.10
2013,07,24,03,00,17.00
2013,07,24,03,01,17.00
2013,07,24,03,02,17.00
2013,07,24,03,03,17.00
2013,07,24,03,04,16.90
2013,07,24,03,05,16.90
2013,07,24,03,06,16.90
2013,07,24,03,07,16.90
2013,07,24,03,08,16.90
2013,07,24,03,09,16.90
2013,07,24,03,10,16.90
2013,07,24,03,11,16.90
2013,07,24,03,12,16.80
2013,07,24,03,13,16.80
2013,07,24,03,14,16.80
2013,07,24,03,15,16.80
2013,07,24,03,16,16.80
2013,07,24,03,17,16.80
2013,07,24,03,18,16.80
2013,07,24,03,19,16.80
2013,07,24,03,20,16.70
2013,07,24,03,21,16.70
2013,07,24,03,22,16.70
2013,07,24,03,23,16.70
2013,07,24,03,24,16.70
2013,07,24,03,25,16.70
2013,07,24,03,26,16.70
2013,07,24,03,27,16.70
2013,07,24,03,28,16.60
2013,07,24,03,29,16.60
2013,07,24,03,30,16.60
2013,07,24,03,31,16.60
2013,07,24,03,32,16.60
2013,07,24,03,33,16.60
2013,07,24,03,34,16.60
2013,07,24,03,35,16.60
2013,07,24,03,36,16.60
2013,07,24,03,37,16.60
2013,07,24,03,38,16.60
2013,07,24,03,39,16.60
2013,07,24,03,40,16.60
2013,07,24,03,41,16.60
2013,07,24,03,42,16.60
2013,07,24,03,43,16.60
2013,07,24,03,44,16.60
2013,07,24,03,45,16.60
2013,07,24,03,46,16.60
2013,07,24,03,47,16.60
2013,07,24,03,48,16.60
2013,07,24,03,49,16.50
2013,07,24,03,50,16.50
2013,07,24,03,51,16.50
2013,07,24,03,52,16.50
2013,07,24,03,53,16.50
2013,07,24,03,54,16.50
2013,07,24,03,55,16.40
2013,07,24,03,56,16.40
2013,07,24,03,57,16.40
2013,07,24,03,58,16.40
2013,07,24,03,59,16.40
2013,07,24,04,00,16.30
2013,07,24,04,01,16.30
2013,07,24,04,02,16.30
2013,07,24,04,03,16.30
2013,07,24,04,04,16.30
2013,07,24,04,05,16.30
2013,07,24,04,06,16.30
2013,07,24,04,07,16.30
2013,07,24,04,08,16.20
2013,07,24,04,09,16.20
2013,07,24,04,10,16.20
2013,07,24,04,11,16.20
2013,07,24,04,12,16.20
2013,07,24,04,13,16.20
2013,07,24,04,14,16.20
2013,07,24,04,15,16.10
2013,07,24,04,16,16.10
2013,07,24,04,17,16.10
2013,07,24,04,18,16.10
2013,07,24,04,19,16.10
2013,07,24,04,20,16.10
2013,07,24,04,21,16.10
2013,07,24,04,22,16.10
2013,07,24,04,23,16.10
2013,07,24,04,24,16.10
2013,07,24,04,25,16.10
2013,07,24,04,26,16.10
2013,07,24,04,27,16.10
2013,07,24,04,28,16.10
2013,07,24,04,29,16.10
2013,07,24,04,30,16.10
2013,07,24,04,31,16.10
2013,07,24,04,32,16.10
2013,07,24,04,33,16.00
2013,07,24,04,34,16.00
2013,07,24,04,35,16.00
2013,07,24,04,36,16.00
2013,07,24,04,37,16.00
2013,07,24,04,38,16.00
2013,07,24,04,39,16.00
2013,07,24,04,40,16.00
2013,07,24,04,41,16.00
2013,07,24,04,42,16.00
2013,07,24,04,43,16.00
2013,07,24,04,44,15.90
2013,07,24,04,45,15.90
2013,07,24,04,46,15.90
2013,07,24,04,47,15.90
2013,07,24,04,48,15.90
2013,07,24,04,49,15.90
2013,07,24,04,50,15.90
2013,07,24,04,51,15.90
2013,07,24,04,52,15.90
2013,07,24,04,53,15.90
2013,07,24,04,54,15.90
2013,07,24,04,55,15.90
2013,07,24,04,56,15.90
2013,07,24,04,57,15.90
2013,07,24,04,58,15.90
2013,07,24,04,59,15.90
2013,07,24,05,00,15.90
2013,07,24,05,01,15.80
2013,07,24,05,02,15.80
2013,07,24,05,03,15.80
2013,07,24,05,04,15.80
2013,07,24,05,05,15.80
2013,07,24,05,06,15.80
2013,07,24,05,07,15.80
2013,07,24,05,08,15.70
2013,07,24,05,09,15.70
2013,07,24,05,10,15.70
2013,07,24,05,11,15.70
2013,07,24,05,12,15.70
2013,07,24,05,13,15.70
2013,07,24,05,14,15.70
2013,07,24,05,15,15.60
2013,07,24,05,16,15.60
2013,07,24,05,17,15.60
2013,07,24,05,18,15.60
2013,07,24,05,19,15.60
2013,07,24,05,20,15.60
2013,07,24,05,21,15.60
2013,07,24,05,22,15.60
2013,07,24,05,23,15.60
2013,07,24,05,24,15.60
2013,07,24,05,25,15.60
2013,07,24,05,26,15.50
2013,07,24,05,27,15.50
2013,07,24,05,28,15.50
2013,07,24,05,29,15.40
2013,07,24,05,30,15.40
2013,07,24,05,31,15.40
2013,07,24,05,32,15.40
2013,07,24,05,33,15.40
2013,07,24,05,34,15.40
2013,07,24,05,35,15.40
2013,07,24,05,36,15.40
2013,07,24,05,37,15.40
2013,07,24,05,38,15.30
2013,07,24,05,39,15.30
2013,07,24,05,40,15.30
2013,07,24,05,41,15.30
2013,07,24,05,42,15.30
2013,07,24,05,43,15.30
2013,07,24,05,44,15.30
2013,07,24,05,45,15.20
2013,07,24,05,46,15.20
2013,07,24,05,47,15.20
2013,07,24,05,48,15.20
2013,07,24,05,49,15.20
2013,07,24,05,50,15.20
2013,07,24,05,51,15.20
2013,07,24,05,52,15.20
2013,07,24,05,53,15.20
2013,07,24,05,54,15.20
2013,07,24,05,55,15.20
2013,07,24,05,56,15.30
2013,07,24,05,57,15.30
2013,07,24,05,58,15.20
2013,07,24,05,59,15.20
2013,07,24,06,00,15.20
2013,07,24,06,01,15.20
2013,07,24,06,02,15.20
2013,07,24,06,03,15.20
2013,07,24,06,04,15.20
2013,07,24,06,05,15.20
2013,07,24,06,06,15.20
2013,07,24,06,07,15.20
2013,07,24,06,08,15.10
2013,07,24,06,09,15.10
2013,07,24,06,10,15.10
2013,07,24,06,11,15.10
2013,07,24,06,12,15.10
2013,07,24,06,13,15.10
2013,07,24,06,14,15.10
2013,07,24,06,15,15.00
2013,07,24,06,16,15.00
2013,07,24,06,17,15.00
2013,07,24,06,18,15.00
2013,07,24,06,19,15.10
2013,07,24,06,20,15.10
2013,07,24,06,21,15.10
2013,07,24,06,22,15.10
2013,07,24,06,23,15.10
2013,07,24,06,24,15.10
2013,07,24,06,25,15.10
2013,07,24,06,26,15.10
2013,07,24,06,27,15.10
2013,07,24,06,28,15.10
2013,07,24,06,29,15.10
2013,07,24,06,30,15.10
2013,07,24,06,31,15.10
2013,07,24,06,32,15.10
2013,07,24,06,33,15.10
2013,07,24,06,34,15.20
2013,07,24,06,35,15.20
2013,07,24,06,36,15.20
2013,07,24,06,37,15.20
2013,07,24,06,38,15.20
2013,07,24,06,39,15.20
2013,07,24,06,40,15.20
2013,07,24,06,41,15.20
2013,07,24,06,42,15.30
2013,07,24,06,43,15.30
2013,07,24,06,44,15.30
2013,07,24,06,45,15.30
2013,07,24,06,46,15.30
2013,07,24,06,47,15.30
2013,07,24,06,48,15.30
2013,07,24,06,49,15.30
2013,07,24,06,50,15.40
2013,07,24,06,51,15.40
2013,07,24,06,52,15.40
2013,07,24,06,53,15.40
2013,07,24,06,54,15.50
2013,07,24,06,55,15.50
2013,07,24,06,56,15.50
2013,07,24,06,57,15.60
2013,07,24,06,58,15.60
2013,07,24,06,59,15.60
2013,07,24,07,00,15.60
2013,07,24,07,01,15.60
2013,07,24,07,02,15.60
2013,07,24,07,03,15.70
2013,07,24,07,04,15.70
2013,07,24,07,05,15.70
2013,07,24,07,06,15.70
2013,07,24,07,07,15.70
2013,07,24,07,08,15.70
2013,07,24,07,09,15.70
2013,07,24,07,10,15.70
2013,07,24,07,11,15.70
2013,07,24,07,12,15.70
2013,07,24,07,13,15.70
2013,07,24,07,14,15.80
2013,07,24,07,15,15.80
2013,07,24,07,16,15.80
2013,07,24,07,17,15.80
2013,07,24,07,18,15.80
2013,07,24,07,19,15.90
2013,07,24,07,20,15.90
2013,07,24,07,21,15.90
2013,07,24,07,22,16.00
2013,07,24,07,23,16.00
2013,07,24,07,24,16.00
2013,07,24,07,25,16.10
2013,07,24,07,26,16.10
2013,07,24,07,27,16.10
2013,07,24,07,28,16.10
2013,07,24,07,29,16.10
2013,07,24,07,30,16.10
2013,07,24,07,31,16.10
2013,07,24,07,32,16.10
2013,07,24,07,33,16.10
2013,07,24,07,34,16.20
2013,07,24,07,35,16.20
2013,07,24,07,36,16.20
2013,07,24,07,37,16.20
2013,07,24,07,38,16.20
2013,07,24,07,39,16.20
2013,07,24,07,40,16.30
2013,07,24,07,41,16.30
2013,07,24,07,42,16.30
2013,07,24,07,43,16.30
2013,07,24,07,44,16.30
2013,07,24,07,45,16.40
2013,07,24,07,46,16.40
2013,07,24,07,47,16.40
2013,07,24,07,48,16.40
2013,07,24,07,49,16.50
2013,07,24,07,50,16.50
2013,07,24,07,51,16.60
2013,07,24,07,52,16.60
2013,07,24,07,53,16.60
2013,07,24,07,54,16.70
2013,07,24,07,55,16.70
2013,07,24,07,56,16.80
2013,07,24,07,57,16.80
2013,07,24,07,58,16.90
2013,07,24,07,59,16.90
2013,07,24,08,00,16.90
2013,07,24,08,01,17.00
2013,07,24,08,02,17.00
2013,07,24,08,03,17.10
2013,07,24,08,04,17.10
2013,07,24,08,05,17.20
2013,07,24,08,06,17.20
2013,07,24,08,07,17.30
2013,07,24,08,08,17.30
2013,07,24,08,09,17.30
2013,07,24,08,10,17.30
2013,07,24,08,11,17.40
2013,07,24,08,12,17.40
2013,07,24,08,13,17.40
2013,07,24,08,14,17.50
2013,07,24,08,15,17.60
2013,07,24,08,16,17.60
2013,07,24,08,17,17.70
2013,07,24,08,18,17.70
2013,07,24,08,19,17.70
2013,07,24,08,20,17.80
2013,07,24,08,21,17.80
2013,07,24,08,22,17.90
2013,07,24,08,23,17.90
2013,07,24,08,24,18.00
2013,07,24,08,25,18.00
2013,07,24,08,26,18.10
2013,07,24,08,27,18.20
2013,07,24,08,28,18.20
2013,07,24,08,29,18.30
2013,07,24,08,30,18.30
2013,07,24,08,31,18.50
2013,07,24,08,32,18.60
2013,07,24,08,33,18.70
2013,07,24,08,34,18.70
2013,07,24,08,35,18.80
2013,07,24,08,36,18.90
2013,07,24,08,37,19.00
2013,07,24,08,38,19.10
2013,07,24,08,39,19.10
2013,07,24,08,40,19.20
2013,07,24,08,41,19.30
2013,07,24,08,42,19.40
2013,07,24,08,43,19.40
2013,07,24,08,44,19.50
2013,07,24,08,45,19.50
2013,07,24,08,46,19.60
2013,07,24,08,47,19.70
2013,07,24,08,48,19.70
2013,07,24,08,49,19.80
2013,07,24,08,50,19.90
2013,07,24,08,51,20.00
2013,07,24,08,52,20.00
2013,07,24,08,53,20.10
2013,07,24,08,54,20.20
2013,07,24,08,55,20.20
2013,07,24,08,56,20.30
2013,07,24,08,57,20.30
2013,07,24,08,58,20.30
2013,07,24,08,59,20.40
2013,07,24,09,00,20.40
2013,07,24,09,01,20.50
2013,07,24,09,02,20.50
2013,07,24,09,03,20.60
2013,07,24,09,04,20.60
2013,07,24,09,05,20.60
2013,07,24,09,06,20.70
2013,07,24,09,07,20.70
2013,07,24,09,08,20.70
2013,07,24,09,09,20.80
2013,07,24,09,10,20.80
2013,07,24,09,11,20.80
2013,07,24,09,12,20.90
2013,07,24,09,13,20.90
2013,07,24,09,14,20.90
2013,07,24,09,15,21.00
2013,07,24,09,16,21.00
2013,07,24,09,17,21.00
2013,07,24,09,18,21.10
2013,07,24,09,19,21.10
2013,07,24,09,20,21.10
2013,07,24,09,21,21.10
2013,07,24,09,22,21.10
2013,07,24,09,23,21.20
2013,07,24,09,24,21.20
2013,07,24,09,25,21.20
2013,07,24,09,26,21.30
2013,07,24,09,27,21.30
2013,07,24,09,28,21.30
2013,07,24,09,29,21.30
2013,07,24,09,30,21.30
2013,07,24,09,31,21.30
2013,07,24,09,32,21.40
2013,07,24,09,33,21.40
2013,07,24,09,34,21.50
2013,07,24,09,35,21.50
2013,07,24,09,36,21.60
2013,07,24,09,37,21.60
2013,07,24,09,38,21.70
2013,07,24,09,39,21.80
2013,07,24,09,40,21.80
2013,07,24,09,41,21.80
2013,07,24,09,42,21.80
2013,07,24,09,43,21.90
2013,07,24,09,44,21.90
2013,07,24,09,45,21.90
2013,07,24,09,46,21.90
2013,07,24,09,47,21.90
2013,07,24,09,48,21.90
2013,07,24,09,49,22.00
2013,07,24,09,50,22.00
2013,07,24,09,51,22.10
2013,07,24,09,52,22.10
2013,07,24,09,53,22.10
2013,07,24,09,54,22.10
2013,07,24,09,55,22.10
2013,07,24,09,56,22.10
2013,07,24,09,57,22.20
2013,07,24,09,58,22.20
2013,07,24,09,59,22.20
2013,07,24,10,00,22.30
2013,07,24,10,01,22.30
2013,07,24,10,02,22.30
2013,07,24,10,03,22.40
2013,07,24,10,04,22.40
2013,07,24,10,05,22.40
2013,07,24,10,06,22.50
2013,07,24,10,07,22.60
2013,07,24,10,08,22.70
2013,07,24,10,09,22.70
2013,07,24,10,10,22.80
2013,07,24,10,11,22.90
2013,07,24,10,12,23.00
2013,07,24,10,13,23.00
2013,07,24,10,14,23.10
2013,07,24,10,15,23.20
2013,07,24,10,16,23.30
2013,07,24,10,17,23.30
2013,07,24,10,18,23.40
2013,07,24,10,19,23.50
2013,07,24,10,20,23.50
2013,07,24,10,21,23.60
2013,07,24,10,22,23.70
2013,07,24,10,23,23.70
2013,07,24,10,24,23.80
2013,07,24,10,25,23.80
2013,07,24,10,26,23.90
2013,07,24,10,27,24.00
2013,07,24,10,28,24.10
2013,07,24,10,29,24.10
2013,07,24,10,30,24.20
2013,07,24,10,31,24.30
2013,07,24,10,32,24.40
2013,07,24,10,33,24.50
2013,07,24,10,34,24.50
2013,07,24,10,35,24.60
2013,07,24,10,36,24.70
2013,07,24,10,37,24.70
2013,07,24,10,38,24.80
2013,07,24,10,39,24.80
2013,07,24,10,40,24.80
2013,07,24,10,41,24.90
2013,07,24,10,42,24.90
2013,07,24,10,43,24.90
2013,07,24,10,44,25.00
2013,07,24,10,45,25.00
2013,07,24,10,46,25.10
2013,07,24,10,47,25.10
2013,07,24,10,48,25.10
2013,07,24,10,49,25.10
2013,07,24,10,50,25.10
2013,07,24,10,51,25.20
2013,07,24,10,52,25.20
2013,07,24,10,53,25.30
2013,07,24,10,54,25.30
2013,07,24,10,55,25.40
2013,07,24,10,56,25.40
2013,07,24,10,57,25.50
2013,07,24,10,58,25.50
2013,07,24,10,59,25.60
2013,07,24,11,00,25.60
2013,07,24,11,01,25.60
2013,07,24,11,02,25.70
2013,07,24,11,03,25.70
2013,07,24,11,04,25.70
2013,07,24,11,05,25.70
2013,07,24,11,06,25.70
2013,07,24,11,07,25.70
2013,07,24,11,08,25.70
2013,07,24,11,09,25.70
2013,07,24,11,10,25.70
2013,07,24,11,11,25.70
2013,07,24,11,12,25.70
2013,07,24,11,13,25.60
2013,07,24,11,14,25.60
2013,07,24,11,15,25.60
2013,07,24,11,16,25.50
2013,07,24,11,17,25.50
2013,07,24,11,18,25.50
2013,07,24,11,19,25.60
2013,07,24,11,20,25.60
2013,07,24,11,21,25.60
2013,07,24,11,22,25.70
2013,07,24,11,23,25.70
2013,07,24,11,24,25.70
2013,07,24,11,25,25.70
2013,07,24,11,26,25.60
2013,07,24,11,27,25.60
2013,07,24,11,28,25.60
2013,07,24,11,29,25.60
2013,07,24,11,30,25.60
2013,07,24,11,31,25.60
2013,07,24,11,32,25.70
2013,07,24,11,33,25.80
2013,07,24,11,34,25.80
2013,07,24,11,35,25.80
2013,07,24,11,36,25.80
2013,07,24,11,37,25.80
2013,07,24,11,38,25.80
2013,07,24,11,39,25.80
2013,07,24,11,40,25.90
2013,07,24,11,41,25.90
2013,07,24,11,42,25.90
2013,07,24,11,43,25.80
2013,07,24,11,44,25.80
2013,07,24,11,45,25.80
2013,07,24,11,46,25.70
2013,07,24,11,47,25.70
2013,07,24,11,48,25.70
2013,07,24,11,49,25.70
2013,07,24,11,50,25.70
2013,07,24,11,51,25.80
2013,07,24,11,52,25.80
2013,07,24,11,53,25.80
2013,07,24,11,54,25.90
2013,07,24,11,55,25.90
2013,07,24,11,56,25.90
2013,07,24,11,57,26.00
2013,07,24,11,58,26.00
2013,07,24,11,59,25.90
2013,07,24,12,00,25.90
2013,07,24,12,01,25.90
2013,07,24,12,02,25.90
2013,07,24,12,03,25.90
2013,07,24,12,04,25.90
2013,07,24,12,05,25.90
2013,07,24,12,06,25.90
2013,07,24,12,07,25.90
2013,07,24,12,08,25.90
2013,07,24,12,09,25.90
2013,07,24,12,10,25.90
2013,07,24,12,11,25.90
2013,07,24,12,12,26.00
2013,07,24,12,13,26.00
2013,07,24,12,14,26.10
2013,07,24,12,15,26.20
2013,07,24,12,16,26.30
2013,07,24,12,17,26.30
2013,07,24,12,18,26.30
2013,07,24,12,19,26.30
2013,07,24,12,20,26.40
2013,07,24,12,21,26.40
2013,07,24,12,22,26.50
2013,07,24,12,23,26.50
2013,07,24,12,24,26.60
2013,07,24,12,25,26.70
2013,07,24,12,26,26.70
2013,07,24,12,27,26.60
2013,07,24,12,28,26.60
2013,07,24,12,29,26.60
2013,07,24,12,30,26.60
2013,07,24,12,31,26.60
2013,07,24,12,32,26.60
2013,07,24,12,33,26.60
2013,07,24,12,34,26.60
2013,07,24,12,35,26.70
2013,07,24,12,36,26.70
2013,07,24,12,37,26.80
2013,07,24,12,38,26.80
2013,07,24,12,39,26.80
2013,07,24,12,40,26.80
2013,07,24,12,41,26.80
2013,07,24,12,42,26.80
2013,07,24,12,43,26.80
2013,07,24,12,44,26.90
2013,07,24,12,45,26.90
2013,07,24,12,46,27.00
2013,07,24,12,47,27.00
2013,07,24,12,48,27.00
2013,07,24,12,49,27.00
2013,07,24,12,50,26.90
2013,07,24,12,51,26.90
2013,07,24,12,52,26.80
2013,07,24,12,53,26.80
2013,07,24,12,54,26.80
2013,07,24,12,55,26.80
2013,07,24,12,56,26.80
2013,07,24,12,57,26.70
2013,07,24,12,58,26.70
2013,07,24,12,59,26.70
2013,07,24,13,00,26.70
2013,07,24,13,01,26.60
2013,07,24,13,02,26.70
2013,07,24,13,03,26.70
2013,07,24,13,04,26.80
2013,07,24,13,05,26.90
2013,07,24,13,06,26.90
2013,07,24,13,07,27.00
2013,07,24,13,08,27.00
2013,07,24,13,09,27.10
2013,07,24,13,10,27.10
2013,07,24,13,11,27.10
2013,07,24,13,12,27.10
2013,07,24,13,13,27.10
2013,07,24,13,14,27.10
2013,07,24,13,15,27.00
2013,07,24,13,16,27.00
2013,07,24,13,17,26.90
2013,07,24,13,18,26.90
2013,07,24,13,19,26.90
2013,07,24,13,20,26.90
2013,07,24,13,21,26.80
2013,07,24,13,22,26.80
2013,07,24,13,23,26.80
2013,07,24,13,24,26.70
2013,07,24,13,25,26.70
2013,07,24,13,26,26.70
2013,07,24,13,27,26.70
2013,07,24,13,28,26.70
2013,07,24,13,29,26.70
2013,07,24,13,30,26.80
2013,07,24,13,31,26.80
2013,07,24,13,32,26.90
2013,07,24,13,33,27.00
2013,07,24,13,34,27.00
2013,07,24,13,35,27.10
2013,07,24,13,36,27.10
2013,07,24,13,37,27.20
2013,07,24,13,38,27.20
2013,07,24,13,39,27.20
2013,07,24,13,40,27.30
2013,07,24,13,41,27.30
2013,07,24,13,42,27.40
2013,07,24,13,43,27.40
2013,07,24,13,44,27.40
2013,07,24,13,45,27.40
2013,07,24,13,46,27.30
2013,07,24,13,47,27.30
2013,07,24,13,48,27.30
2013,07,24,13,49,27.30
2013,07,24,13,50,27.30
2013,07,24,13,51,27.30
2013,07,24,13,52,27.20
2013,07,24,13,53,27.10
2013,07,24,13,54,27.10
2013,07,24,13,55,27.00
2013,07,24,13,56,26.90
2013,07,24,13,57,26.80
2013,07,24,13,58,26.80
2013,07,24,13,59,26.80
2013,07,24,14,00,26.90
2013,07,24,14,01,26.90
2013,07,24,14,02,27.00
2013,07,24,14,03,27.10
2013,07,24,14,04,27.10
2013,07,24,14,05,27.10
2013,07,24,14,06,27.00
2013,07,24,14,07,27.00
2013,07,24,14,08,26.90
2013,07,24,14,09,27.00
2013,07,24,14,10,27.00
2013,07,24,14,11,27.00
2013,07,24,14,12,27.00
2013,07,24,14,13,26.90
2013,07,24,14,14,26.90
2013,07,24,14,15,27.00
2013,07,24,14,16,27.00
2013,07,24,14,17,27.10
2013,07,24,14,18,27.00
2013,07,24,14,19,27.00
2013,07,24,14,20,26.90
2013,07,24,14,21,26.80
2013,07,24,14,22,26.70
2013,07,24,14,23,26.70
2013,07,24,14,24,26.70
2013,07,24,14,25,26.70
2013,07,24,14,26,26.70
2013,07,24,14,27,26.80
2013,07,24,14,28,26.90
2013,07,24,14,29,27.00
2013,07,24,14,30,27.10
2013,07,24,14,31,27.20
2013,07,24,14,32,27.30
2013,07,24,14,33,27.40
2013,07,24,14,34,27.40
2013,07,24,14,35,27.30
2013,07,24,14,36,27.30
2013,07,24,14,37,27.30
2013,07,24,14,38,27.20
2013,07,24,14,39,27.20
2013,07,24,14,40,27.10
2013,07,24,14,41,27.10
2013,07,24,14,42,27.00
2013,07,24,14,43,26.90
2013,07,24,14,44,26.90
2013,07,24,14,45,26.80
2013,07,24,14,46,26.70
2013,07,24,14,47,26.60
2013,07,24,14,48,26.50
2013,07,24,14,49,26.40
2013,07,24,14,50,26.40
2013,07,24,14,51,26.30
2013,07,24,14,52,26.30
2013,07,24,14,53,26.30
2013,07,24,14,54,26.40
2013,07,24,14,55,26.50
2013,07,24,14,56,26.60
2013,07,24,14,57,26.60
2013,07,24,14,58,26.60
2013,07,24,14,59,26.70
2013,07,24,15,00,26.70
2013,07,24,15,01,26.80
2013,07,24,15,02,26.80
2013,07,24,15,03,26.90
2013,07,24,15,04,27.00
2013,07,24,15,05,27.10
2013,07,24,15,06,27.10
2013,07,24,15,07,27.20
2013,07,24,15,08,27.20
2013,07,24,15,09,27.20
2013,07,24,15,10,27.20
2013,07,24,15,11,27.20
2013,07,24,15,12,27.10
2013,07,24,15,13,27.10
2013,07,24,15,14,27.10
2013,07,24,15,15,27.10
2013,07,24,15,16,27.10
2013,07,24,15,17,27.20
2013,07,24,15,18,27.20
2013,07,24,15,19,27.30
2013,07,24,15,20,27.40
2013,07,24,15,21,27.50
2013,07,24,15,22,27.50
2013,07,24,15,23,27.60
2013,07,24,15,24,27.70
2013,07,24,15,25,27.80
2013,07,24,15,26,27.80
2013,07,24,15,27,27.90
2013,07,24,15,28,28.00
2013,07,24,15,29,28.10
2013,07,24,15,30,28.20
2013,07,24,15,31,28.20
2013,07,24,15,32,28.10
2013,07,24,15,33,28.00
2013,07,24,15,34,27.90
2013,07,24,15,35,27.80
2013,07,24,15,36,27.70
2013,07,24,15,37,27.70
2013,07,24,15,38,27.60
2013,07,24,15,39,27.60
2013,07,24,15,40,27.60
2013,07,24,15,41,27.60
2013,07,24,15,42,27.70
2013,07,24,15,43,27.70
2013,07,24,15,44,27.80
2013,07,24,15,45,27.80
2013,07,24,15,46,27.90
2013,07,24,15,47,27.90
2013,07,24,15,48,28.00
2013,07,24,15,49,28.00
2013,07,24,15,50,28.00
2013,07,24,15,51,28.00
2013,07,24,15,52,28.00
2013,07,24,15,53,28.00
2013,07,24,15,54,28.00
2013,07,24,15,55,28.10
2013,07,24,15,56,28.10
2013,07,24,15,57,28.10
2013,07,24,15,58,28.10
2013,07,24,15,59,28.10
2013,07,24,16,00,28.00
2013,07,24,16,01,28.00
2013,07,24,16,02,27.90
2013,07,24,16,03,27.90
2013,07,24,16,04,27.80
2013,07,24,16,05,27.80
2013,07,24,16,06,27.70
2013,07,24,16,07,27.70
2013,07,24,16,08,27.70
2013,07,24,16,09,27.80
2013,07,24,16,10,27.80
2013,07,24,16,11,27.80
2013,07,24,16,12,27.90
2013,07,24,16,13,27.80
2013,07,24,16,14,27.70
2013,07,24,16,15,27.70
2013,07,24,16,16,27.60
2013,07,24,16,17,27.60
2013,07,24,16,18,27.50
2013,07,24,16,19,27.50
2013,07,24,16,20,27.40
2013,07,24,16,21,27.40
2013,07,24,16,22,27.40
2013,07,24,16,23,27.40
2013,07,24,16,24,27.40
2013,07,24,16,25,27.50
2013,07,24,16,26,27.60
2013,07,24,16,27,27.60
2013,07,24,16,28,27.50
2013,07,24,16,29,27.40
2013,07,24,16,30,27.40
2013,07,24,16,31,27.40
2013,07,24,16,32,27.40
2013,07,24,16,33,27.40
2013,07,24,16,34,27.50
2013,07,24,16,35,27.60
2013,07,24,16,36,27.70
2013,07,24,16,37,27.70
2013,07,24,16,38,27.70
2013,07,24,16,39,27.80
2013,07,24,16,40,27.80
2013,07,24,16,41,27.90
2013,07,24,16,42,27.90
2013,07,24,16,43,27.90
2013,07,24,16,44,27.90
2013,07,24,16,45,27.90
2013,07,24,16,46,27.80
2013,07,24,16,47,27.80
2013,07,24,16,48,27.80
2013,07,24,16,49,27.90
2013,07,24,16,50,27.90
2013,07,24,16,51,28.00
2013,07,24,16,52,28.20
2013,07,24,16,53,28.30
2013,07,24,16,54,28.40
2013,07,24,16,55,28.50
2013,07,24,16,56,28.60
2013,07,24,16,57,28.70
2013,07,24,16,58,28.70
2013,07,24,16,59,28.80
2013,07,24,17,00,28.80
2013,07,24,17,01,28.90
2013,07,24,17,02,28.90
2013,07,24,17,03,29.00
2013,07,24,17,04,28.90
2013,07,24,17,05,29.00
2013,07,24,17,06,29.00
2013,07,24,17,07,29.00
2013,07,24,17,08,29.00
2013,07,24,17,09,29.10
2013,07,24,17,10,29.10
2013,07,24,17,11,29.10
2013,07,24,17,12,29.10
2013,07,24,17,13,29.10
2013,07,24,17,14,29.10
2013,07,24,17,15,29.10
2013,07,24,17,16,29.20
2013,07,24,17,17,29.20
2013,07,24,17,18,29.20
2013,07,24,17,19,29.20